Terminal Aerodrome Forecast
Issued by NWS St Louis, MO

Home | Current Version | Previous Version | Text Only | Print | Product List | Glossary On
Versions: 1 2 3 4 5 6 7 8 9 10 11 12 13 14 15 16 17 18 19 20 21 22 23 24 25 26
000
FTUS43 KLSX 221500 AAA
TAFCOU
TAF AMD
KCOU 221500Z 2215/2312 14010KT 2SM -RA BR OVC008
      TEMPO 2215/2217 BKN003
     FM230400 22012KT P6SM OVC012=

USA.gov is the U.S. government's official web portal to all federal, state and local government web resources and services.